St. Paul Lake Elmo, MN

4:23 PM CST on December 12, 2019 (GMT -0600)
St. Paul Lake Elmo

Weather History for K21D - November, 2019

Change the Weather History Date:

Wednesday, November 13, 2019

  Actual Average (KSTP) Record (KSTP)
Temperature  
Mean Temperature 24 °F -  
Max Temperature 28 °F 41 °F 71 °F (1999)
Min Temperature 19 °F 27 °F 6 °F (2018)
Degree Days  
Heating Degree Days 42    
Moisture  
Dew Point 17 °F    
Average Humidity 74    
Maximum Humidity 93    
Minimum Humidity 58    
Precipitation  
Precipitation 0.00 in - - ()
Sea Level Pressure  
Sea Level Pressure 29.97 in    
Wind  
Wind Speed 10 mph (SSW)    
Max Wind Speed 16 mph    
Max Gust Speed 22 mph    
Visibility 9 miles    
Events Snow    
Averages and records for this station are not official NWS values.
T = Trace of Precipitation, MM = Missing Value Source: NWS Daily Summary

Daily Weather History Graph

Daily Weather History Graph

Search for Another Location

Airport or City:

Astronomy

Nov. 13, 2019 Rise Set
Actual Time 7:06 AM CST 4:44 PM CST
Civil Twilight 6:34 AM CST 5:16 PM CST
Nautical Twilight 5:59 AM CST 5:51 PM CST
Astronomical Twilight 5:24 AM CST 6:26 PM CST
Moon 5:46 PM CST (11/13) 8:00 AM CST (11/13)
Length of Visible Light 10h 41m
Length of Day
9h 38m
Full, 99% of the Moon is Illuminated
Nov 13
Full
Nov 19
Last Quarter
Nov 26
New
Dec 4
First Quarter
Dec 11
Full

Hourly Weather History & Observations

Time (CST) Temp. Windchill Dew Point Humidity Pressure Visibility Wind Dir Wind Speed Gust Speed Precip Events Conditions
12:16 AM 19.4 °F 6.6 °F 6.8 °F 58% 30.03 in 10.0 mi South 12.7 mph 21.9 mph N/A   Clear
12:35 AM 19.4 °F 5.0 °F 8.6 °F 63% 30.02 in 10.0 mi South 16.1 mph - N/A   Clear
12:55 AM 19.4 °F 6.0 °F 8.6 °F 63% 30.01 in 10.0 mi South 13.8 mph 20.7 mph N/A   Clear
12:56 AM 19.4 °F 6.6 °F 8.6 °F 63% 30.01 in 10.0 mi South 12.7 mph 20.7 mph N/A   Clear
1:15 AM 19.4 °F 6.6 °F 8.6 °F 63% 29.99 in 10.0 mi South 12.7 mph - N/A   Clear
1:37 AM 19.4 °F 6.0 °F 8.6 °F 63% 29.98 in 10.0 mi South 13.8 mph 19.6 mph N/A   Scattered Clouds
1:55 AM 21.2 °F 8.3 °F 8.6 °F 58% 29.97 in 10.0 mi South 13.8 mph 21.9 mph N/A   Clear
2:15 AM 21.2 °F 8.3 °F 10.4 °F 63% 29.97 in 10.0 mi South 13.8 mph 18.4 mph N/A   Scattered Clouds
2:35 AM 21.2 °F 8.3 °F 10.4 °F 63% 29.97 in 10.0 mi South 13.8 mph 18.4 mph N/A   Scattered Clouds
2:36 AM 21.2 °F 7.8 °F 10.4 °F 63% 29.97 in 10.0 mi South 15.0 mph 18.4 mph N/A   Scattered Clouds
2:58 AM 21.2 °F 8.9 °F 10.4 °F 63% 29.97 in 10.0 mi South 12.7 mph 19.6 mph N/A   Clear
3:16 AM 21.2 °F 7.8 °F 10.4 °F 63% 29.96 in 10.0 mi South 15.0 mph 18.4 mph N/A   Clear
3:35 AM 21.2 °F 8.3 °F 10.4 °F 63% 29.96 in 10.0 mi South 13.8 mph 18.4 mph N/A   Clear
3:36 AM 21.2 °F 8.9 °F 10.4 °F 63% 29.96 in 10.0 mi South 12.7 mph 18.4 mph N/A   Clear
3:55 AM 21.2 °F 9.5 °F 10.4 °F 63% 29.94 in 10.0 mi South 11.5 mph 17.3 mph N/A   Clear
3:56 AM 21.2 °F 9.5 °F 10.4 °F 63% 29.94 in 10.0 mi South 11.5 mph 17.3 mph N/A   Clear
4:15 AM 21.2 °F 7.8 °F 10.4 °F 63% 29.93 in 10.0 mi South 15.0 mph 18.4 mph N/A   Scattered Clouds
4:20 AM 21.2 °F 8.3 °F 10.4 °F 63% 29.92 in 10.0 mi South 13.8 mph - N/A   Scattered Clouds
4:37 AM 21.2 °F 8.3 °F 10.4 °F 63% 29.92 in 10.0 mi South 13.8 mph - N/A   Scattered Clouds
4:56 AM 21.2 °F 8.3 °F 10.4 °F 63% 29.91 in 10.0 mi South 13.8 mph 20.7 mph N/A   Clear
5:15 AM 21.2 °F 7.3 °F 10.4 °F 63% 29.90 in 10.0 mi South 16.1 mph - N/A   Scattered Clouds
5:16 AM 21.2 °F 7.8 °F 10.4 °F 63% 29.90 in 10.0 mi South 15.0 mph - N/A   Scattered Clouds
5:35 AM 21.2 °F 8.9 °F 12.2 °F 68% 29.90 in 10.0 mi South 12.7 mph - N/A   Scattered Clouds
5:36 AM 21.2 °F 9.5 °F 12.2 °F 68% 29.90 in 10.0 mi South 11.5 mph - N/A   Scattered Clouds
5:58 AM 21.2 °F 7.8 °F 12.2 °F 68% 29.90 in 10.0 mi South 15.0 mph 18.4 mph N/A   Mostly Cloudy
6:16 AM 21.2 °F 10.9 °F 12.2 °F 68% 29.90 in 10.0 mi South 9.2 mph - N/A   Overcast
6:36 AM 21.2 °F 8.9 °F 12.2 °F 68% 29.90 in 10.0 mi South 12.7 mph 17.3 mph N/A   Overcast
6:55 AM 21.2 °F 8.9 °F 12.2 °F 68% 29.90 in 10.0 mi South 12.7 mph 18.4 mph N/A   Mostly Cloudy
6:56 AM 21.2 °F 9.5 °F 12.2 °F 68% 29.90 in 10.0 mi South 11.5 mph - N/A   Mostly Cloudy
7:15 AM 21.2 °F 10.1 °F 12.2 °F 68% 29.90 in 10.0 mi South 10.4 mph - N/A   Mostly Cloudy
7:20 AM 21.2 °F 10.1 °F 12.2 °F 68% 29.90 in 10.0 mi South 10.4 mph - N/A   Mostly Cloudy
7:55 AM 21.2 °F 10.1 °F 12.2 °F 68% 29.91 in 10.0 mi South 10.4 mph - N/A   Clear
8:15 AM 23.0 °F 12.4 °F 14.0 °F 68% 29.92 in 10.0 mi South 10.4 mph - N/A   Clear
8:16 AM 23.0 °F 13.1 °F 14.0 °F 68% 29.92 in 10.0 mi South 9.2 mph - N/A   Clear
8:35 AM 23.0 °F 14.7 °F 14.0 °F 68% 29.92 in 10.0 mi South 6.9 mph - N/A   Clear
8:36 AM 23.0 °F 18.4 °F 14.0 °F 68% 29.92 in 10.0 mi South 3.5 mph - N/A   Clear
9:16 AM 23.0 °F 11.7 °F 14.0 °F 68% 29.93 in 10.0 mi South 11.5 mph - N/A   Scattered Clouds
9:35 AM 23.0 °F 12.4 °F 14.0 °F 68% 29.93 in 10.0 mi South 10.4 mph - N/A   Scattered Clouds
9:55 AM 23.0 °F 13.9 °F 15.8 °F 74% 29.93 in 5.0 mi South 8.1 mph - N/A Snow Light Snow
9:56 AM 23.0 °F 13.1 °F 15.8 °F 74% 29.93 in 5.0 mi South 9.2 mph - N/A Snow Light Snow
10:15 AM 23.0 °F 15.8 °F 19.4 °F 86% 29.93 in 1.8 mi SSE 5.8 mph - N/A Snow Light Snow
10:20 AM 23.0 °F 14.7 °F 19.4 °F 86% 29.94 in 1.5 mi SSE 6.9 mph - N/A Snow Light Snow
10:37 AM 23.0 °F 14.7 °F 19.4 °F 86% 29.94 in 1.2 mi South 6.9 mph - N/A Snow Light Snow
10:55 AM 23.0 °F 17.0 °F 19.4 °F 86% 29.95 in 1.2 mi South 4.6 mph - N/A Snow Light Snow
11:15 AM 23.0 °F 13.9 °F 21.2 °F 93% 29.94 in 1.8 mi South 8.1 mph - N/A Snow Light Snow
11:16 AM 23.0 °F 14.7 °F 21.2 °F 93% 29.94 in 2.0 mi South 6.9 mph - N/A Snow Light Snow
11:35 AM 23.0 °F 15.8 °F 21.2 °F 93% 29.94 in 2.0 mi South 5.8 mph - N/A Snow Light Snow
11:58 AM 23.0 °F 14.7 °F 21.2 °F 93% 29.93 in 3.0 mi South 6.9 mph - N/A Snow Light Snow
12:17 PM 24.8 °F 19.1 °F 21.2 °F 86% 29.92 in 2.0 mi SSE 4.6 mph - N/A Snow Light Snow
12:55 PM 26.6 °F 20.0 °F 21.2 °F 80% 29.91 in 2.5 mi South 5.8 mph - N/A Snow Light Snow
1:15 PM 26.6 °F 22.6 °F 23.0 °F 86% 29.92 in 3.0 mi South 3.5 mph - N/A Snow Light Snow
1:19 PM 26.6 °F 22.6 °F 23.0 °F 86% 29.92 in 4.0 mi SSW 3.5 mph - N/A Snow Light Snow
1:38 PM 26.6 °F - 23.0 °F 86% 29.92 in 5.0 mi Calm Calm - N/A Snow Light Snow
1:55 PM 26.6 °F 22.6 °F 23.0 °F 86% 29.92 in 4.0 mi South 3.5 mph - N/A Snow Light Snow
2:15 PM 26.6 °F 22.6 °F 23.0 °F 86% 29.92 in 7.0 mi SSW 3.5 mph - N/A Snow Light Snow
2:16 PM 26.6 °F 22.6 °F 23.0 °F 86% 29.92 in 7.0 mi SSW 3.5 mph - N/A Snow Light Snow
2:35 PM 28.4 °F - 23.0 °F 80% 29.92 in 10.0 mi Calm Calm - N/A   Overcast
2:36 PM 28.4 °F - 23.0 °F 80% 29.92 in 10.0 mi Calm Calm - N/A   Overcast
2:58 PM 28.4 °F - 23.0 °F 80% 29.93 in 10.0 mi Calm Calm - N/A   Overcast
3:16 PM 28.4 °F - 23.0 °F 80% 29.94 in 10.0 mi Calm Calm - N/A   Overcast
3:35 PM 28.4 °F 23.3 °F 23.0 °F 80% 29.94 in 10.0 mi NW 4.6 mph - N/A   Overcast
3:36 PM 28.4 °F 22.2 °F 23.0 °F 80% 29.94 in 10.0 mi NW 5.8 mph - N/A   Overcast
3:55 PM 28.4 °F 23.3 °F 23.0 °F 80% 29.95 in 10.0 mi WNW 4.6 mph - N/A   Overcast
3:56 PM 28.4 °F 23.3 °F 23.0 °F 80% 29.95 in 10.0 mi WNW 4.6 mph - N/A   Overcast
4:15 PM 28.4 °F 24.6 °F 23.0 °F 80% 29.96 in 10.0 mi NW 3.5 mph - N/A   Overcast
4:19 PM 28.4 °F 23.3 °F 23.0 °F 80% 29.96 in 10.0 mi WNW 4.6 mph - N/A   Overcast
4:55 PM 28.4 °F 24.6 °F 23.0 °F 80% 29.97 in 10.0 mi NW 3.5 mph - N/A   Overcast
5:15 PM 28.4 °F 24.6 °F 23.0 °F 80% 29.98 in 10.0 mi NW 3.5 mph - N/A   Overcast
5:35 PM 28.4 °F - 23.0 °F 80% 29.98 in 10.0 mi Calm Calm - N/A   Overcast
5:36 PM 28.4 °F - 23.0 °F 80% 29.98 in 10.0 mi Calm Calm - N/A   Overcast
5:57 PM 28.4 °F - 23.0 °F 80% 30.00 in 10.0 mi Calm Calm - N/A   Overcast
6:16 PM 28.4 °F 24.6 °F 23.0 °F 80% 30.00 in 10.0 mi NNW 3.5 mph - N/A   Overcast
6:35 PM 28.4 °F 24.6 °F 23.0 °F 80% 30.01 in 10.0 mi NNW 3.5 mph - N/A   Overcast
6:36 PM 28.4 °F 24.6 °F 23.0 °F 80% 30.01 in 10.0 mi NNW 3.5 mph - N/A   Overcast
6:55 PM 28.4 °F 24.6 °F 23.0 °F 80% 30.02 in 10.0 mi NNW 3.5 mph - N/A   Overcast
7:18 PM 28.4 °F 24.6 °F 23.0 °F 80% 30.02 in 10.0 mi NNW 3.5 mph - N/A   Overcast
7:56 PM 28.4 °F 22.2 °F 23.0 °F 80% 30.03 in 10.0 mi NW 5.8 mph - N/A   Overcast
8:15 PM 28.4 °F 22.2 °F 21.2 °F 74% 30.04 in 10.0 mi NNW 5.8 mph - N/A   Overcast
8:16 PM 28.4 °F 22.2 °F 21.2 °F 74% 30.04 in 10.0 mi NNW 5.8 mph - N/A   Overcast
8:35 PM 28.4 °F 23.3 °F 21.2 °F 74% 30.04 in 10.0 mi NW 4.6 mph - N/A   Overcast
8:57 PM 28.4 °F 23.3 °F 21.2 °F 74% 30.05 in 10.0 mi NW 4.6 mph - N/A   Overcast
9:16 PM 28.4 °F 23.3 °F 21.2 °F 74% 30.05 in 10.0 mi NNW 4.6 mph - N/A   Overcast
9:35 PM 28.4 °F 24.6 °F 21.2 °F 74% 30.06 in 10.0 mi NNW 3.5 mph - N/A   Overcast
9:36 PM 28.4 °F 24.6 °F 21.2 °F 74% 30.06 in 10.0 mi NNW 3.5 mph - N/A   Overcast
9:55 PM 28.4 °F 20.4 °F 21.2 °F 74% 30.07 in 10.0 mi NNW 8.1 mph - N/A   Overcast
9:56 PM 28.4 °F 20.4 °F 21.2 °F 74% 30.07 in 10.0 mi NNW 8.1 mph - N/A   Overcast
10:18 PM 26.6 °F 19.1 °F 21.2 °F 80% 30.07 in 10.0 mi NW 6.9 mph - N/A   Overcast
10:36 PM 26.6 °F 22.6 °F 19.4 °F 74% 30.08 in 10.0 mi NNW 3.5 mph - N/A   Overcast
10:56 PM 26.6 °F 21.2 °F 19.4 °F 74% 30.08 in 10.0 mi NW 4.6 mph - N/A   Overcast
11:15 PM 26.6 °F 22.6 °F 19.4 °F 74% 30.08 in 10.0 mi NNW 3.5 mph - N/A   Overcast
11:16 PM 26.6 °F 22.6 °F 19.4 °F 74% 30.08 in 10.0 mi NNW 3.5 mph - N/A   Overcast
11:35 PM 26.6 °F 22.6 °F 19.4 °F 74% 30.09 in 10.0 mi North 3.5 mph - N/A   Overcast
11:39 PM 26.6 °F - 19.4 °F 74% 30.09 in 10.0 mi Calm Calm - N/A   Overcast
11:58 PM 26.6 °F 22.6 °F 19.4 °F 74% 30.09 in 10.0 mi NNW 3.5 mph - N/A   Overcast